Durango, CO

2:11 AM MDT on May 26, 2017 (GMT -0600)
Durango-La Plata County

Weather History for KDRO - June, 2013

Change the Weather History Date:

Sunday, June 30, 2013

  Actual Average Record
Temperature  
Mean Temperature 71 °F 66 °F  
Max Temperature 90 °F 85 °F 96 °F (1998)
Min Temperature 51 °F 47 °F 39 °F (1997)
Degree Days  
Heating Degree Days 0 1  
Month to date heating degree days 40 115  
Since 1 June heating degree days 40 115  
Since 1 July heating degree days 7146 7123  
Cooling Degree Days 6 2  
Month to date cooling degree days 55 28  
Year to date cooling degree days 55 29  
Since 1 June cooling degree days 55 28  
Growing Degree Days 20 (Base 50)    
Moisture  
Dew Point 43 °F    
Average Humidity 46    
Maximum Humidity 72    
Minimum Humidity 20    
Precipitation  
Precipitation T in 0.04 in 0.27 in (1981)
Month to date precipitation 0.02 0.64  
Year to date precipitation 3.77 6.07  
Sea Level Pressure  
Sea Level Pressure 30.02 in    
Wind  
Wind Speed 7 mph (NW)    
Max Wind Speed 22 mph    
Max Gust Speed 29 mph    
Visibility 10 miles    
Events Rain , Thunderstorm    
T = Trace of Precipitation, MM = Missing Value Source: NWS Daily Summary

Daily Weather History Graph

Daily Weather History Graph

Search for Another Location

Airport or City:

Trip Planner

Search our weather history database for the weather conditions in past years. The results will help you decide how hot, cold, wet, or windy it might be!

Date:

Astronomy

Jun. 30, 2013 Rise Set
Actual Time 5:54 AM MDT 8:35 PM MDT
Civil Twilight 5:23 AM MDT 9:05 PM MDT
Nautical Twilight 4:45 AM MDT 9:44 PM MDT
Astronomical Twilight 4:01 AM MDT 10:27 PM MDT
Moon 12:47 AM MDT (6/30) 1:58 PM MDT (6/30)
Length of Visible Light 15h 42m
Length of Day
14h 40m
Last Quarter, 45% of the Moon is Illuminated
Jun 30
Last Quarter
Jul 8
New
Jul 15
First Quarter
Jul 22
Full
Jul 29
Last Quarter

Hourly Weather History & Observations

Time (MDT) Temp. Dew Point Humidity Pressure Visibility Wind Dir Wind Speed Gust Speed Precip Events Conditions
12:53 AM 59.0 °F 46.9 °F 64% 30.00 in 10.0 mi Calm Calm - N/A   Clear
1:53 AM 59.0 °F 48.0 °F 67% 30.01 in 10.0 mi NNW 5.8 mph - N/A   Clear
2:53 AM 57.0 °F 46.9 °F 69% 30.04 in 10.0 mi Calm Calm - N/A   Clear
3:53 AM 55.0 °F 46.0 °F 72% 30.06 in 10.0 mi ENE 4.6 mph - N/A   Clear
4:53 AM 55.0 °F 44.1 °F 67% 30.06 in 10.0 mi North 13.8 mph - N/A   Clear
5:53 AM 54.0 °F 44.1 °F 69% 30.06 in 10.0 mi North 3.5 mph - N/A   Clear
6:53 AM 55.9 °F 44.1 °F 64% 30.06 in 10.0 mi Calm Calm - N/A   Clear
7:53 AM 63.0 °F 46.0 °F 54% 30.05 in 10.0 mi Calm Calm - N/A   Clear
8:53 AM 70.0 °F 44.1 °F 39% 30.06 in 10.0 mi ENE 4.6 mph - N/A   Clear
9:53 AM 75.9 °F 44.1 °F 32% 30.01 in 10.0 mi Calm Calm - N/A   Clear
10:53 AM 79.0 °F 43.0 °F 28% 29.99 in 10.0 mi Variable 3.5 mph - N/A   Clear
11:53 AM 84.0 °F 43.0 °F 24% 29.95 in 10.0 mi WSW 9.2 mph - N/A   Clear
12:53 PM 87.1 °F 43.0 °F 21% 29.93 in 10.0 mi Variable 6.9 mph - N/A   Clear
1:53 PM 84.9 °F 41.0 °F 21% 29.90 in 10.0 mi WSW 9.2 mph 25.3 mph N/A   Clear
2:27 PM 86.0 °F 39.2 °F 19% 30.17 in 10.0 mi WNW 6.9 mph 20.7 mph N/A Thunderstorm Clear
2:53 PM 84.0 °F 39.9 °F 21% 29.90 in 10.0 mi West 13.8 mph 23.0 mph N/A   Scattered Clouds
3:23 PM 78.8 °F 41.0 °F 26% 30.20 in 10.0 mi NNW 17.3 mph 26.5 mph N/A Thunderstorm Mostly Cloudy
3:38 PM 78.8 °F 41.0 °F 26% 30.18 in 10.0 mi West 10.4 mph 26.5 mph 0.00 in Rain Light Rain
3:48 PM 80.6 °F 37.4 °F 21% 30.18 in 10.0 mi WSW 15.0 mph 27.6 mph 0.00 in Thunderstorm Overcast
3:53 PM 81.0 °F 35.1 °F 19% 29.92 in 10.0 mi SW 16.1 mph 27.6 mph 0.00 in Thunderstorm Overcast
4:00 PM 80.6 °F 33.8 °F 18% 30.17 in 10.0 mi Variable 5.8 mph 24.2 mph N/A Thunderstorm Mostly Cloudy
4:20 PM 75.2 °F 44.6 °F 34% 30.18 in 10.0 mi West 17.3 mph 24.2 mph N/A   Partly Cloudy
4:53 PM 75.9 °F 45.0 °F 33% 29.93 in 10.0 mi West 5.8 mph - N/A   Clear
5:53 PM 81.0 °F 46.0 °F 29% 29.88 in 10.0 mi West 6.9 mph - N/A   Clear
6:53 PM 82.9 °F 41.0 °F 23% 29.85 in 10.0 mi West 9.2 mph - N/A   Clear
7:53 PM 79.0 °F 44.1 °F 29% 29.89 in 10.0 mi ESE 16.1 mph 20.7 mph N/A   Clear
8:53 PM 69.1 °F 46.9 °F 45% 29.95 in 10.0 mi East 12.7 mph 20.7 mph N/A   Clear
9:53 PM 66.9 °F 45.0 °F 45% 29.97 in 10.0 mi East 11.5 mph 23.0 mph N/A   Clear
10:53 PM 64.9 °F 45.0 °F 48% 29.98 in 10.0 mi East 10.4 mph - N/A   Clear
11:53 PM 60.1 °F 43.0 °F 53% 29.99 in 10.0 mi ENE 3.5 mph - N/A   Clear